Snowfall_Accumulation
0.0 7.1 6.2 0.9 0.0 0.0 0.4 0.1 0.1 0.0 0.0 0.0 0.0 0.0 0.0 0.0 0.0 0.0 0.4 0.0 0.0 0.0 0.0 0.0 0.0 0.0 0.0 0.0 0.0 0.0 0.0 0.0 0.0 0.0 0.0 0.0 0.0 0.0 0.0 0.0 0.0 0.0 0.0 0.0
0.8 6.6 0.0 0.0 0.0 0.1 2.1 0.4 0.2 0.0 0.0 0.0 0.0 0.0 0.0 0.0 0.0 0.0 3.5 0.0 0.0 0.0 0.0 0.0 0.0 0.0 0.0 0.0 0.0 0.0 0.0 0.0 0.0 0.0 0.0 0.0 0.0 0.0 0.0 0.0 0.0 0.0 0.0 0.0
2.5 0.7 0.0 0.2 0.3 0.5 0.5 0.0 0.1 1.6 0.0 0.0 0.0 0.2 0.0 0.0 0.0 0.0 0.0 0.0 0.0 0.5 1.2 0.0 0.0 0.0 0.0 0.0 0.0 0.0 0.0 0.0 0.0 0.0 0.0 0.0 0.0 0.0 0.0 0.0 0.0 0.0 0.0 0.0
1.7 0.0 0.2 2.5 0.1 0.1 0.0 0.0 0.2 0.0 0.9 2.3 0.0 1.4 0.0 0.0 0.0 0.0 0.0 0.0 0.0 0.0 0.0 0.0 0.0 0.0 0.0 0.0 0.0 0.0 0.0 0.0 0.0 0.0 0.0 0.0 0.0 0.0 0.0 0.0 0.0 0.0 0.0 0.0
3.8 0.2 1.3 1.7 0.0 0.0 0.0 0.0 0.0 0.6 1.7 1.5 0.0 4.0 0.0 0.0 0.0 0.0 0.0 0.0 0.0 0.0 0.0 0.0 0.0 0.0 0.0 0.0 0.0 0.0 0.0 0.0 0.0 0.0 0.0 0.0 0.0 0.0 0.0 0.0 0.0 0.0 0.0 0.0
1.3 0.0 0.0 0.0 0.0 0.0 0.0 0.0 0.0 2.4 4.1 12.4 0.0 4.5 3.5 1.6 1.4 0.4 0.0 0.0 0.0 0.0 0.0 0.0 0.0 0.0 0.0 0.0 0.0 0.0 0.0 0.0 0.0 0.0 0.0 0.0 0.0 0.0 0.0 0.0 0.0 0.0 0.0 0.0
3.2 0.0 0.0 0.0 0.0 0.0 1.3 6.6 15.9 17.3 17.3 9.5 2.7 5.5 4.3 1.9 0.3 0.6 0.0 0.0 0.0 0.0 0.0 0.0 0.0 0.0 0.0 0.0 0.0 0.0 0.0 0.0 0.0 0.0 0.0 0.0 0.0 0.0 0.0 0.0 0.0 0.0 0.0 0.0
9.9 16.2 0.0 0.0 0.0 3.5 2.7 3.0 11.3 8.4 3.8 2.4 0.6 5.1 6.0 0.1 0.0 0.0 0.0 0.0 0.0 0.0 0.0 0.0 0.0 0.0 0.0 0.1 0.0 0.0 0.1 0.0 0.0 0.1 0.0 0.1 0.0 0.4 0.4 0.0 0.0 0.6 0.0 0.0
2.5 4.3 0.0 0.0 0.0 0.0 0.7 6.2 0.1 3.8 1.1 3.4 2.9 2.3 0.1 0.0 0.0 0.0 0.0 0.0 0.0 0.0 0.0 0.0 0.0 0.0 0.1 0.1 0.1 0.0 0.2 0.2 0.2 0.0 0.1 0.1 0.1 0.2 0.1 0.1 0.0 0.0 0.0 0.0
0.0 2.7 0.0 0.0 0.0 0.0 0.1 0.0 1.1 9.2 7.6 3.6 2.0 3.1 8.6 5.4 3.6 1.3 0.9 0.0 0.0 0.0 0.0 0.0 0.0 0.0 0.0 0.1 0.2 0.4 0.4 0.3 0.5 0.5 0.3 0.2 0.3 0.5 0.1 0.0 0.1 0.1 0.0 0.0
0.0 2.2 1.2 0.0 0.5 0.4 0.2 1.2 0.9 0.5 0.9 1.8 1.6 6.3 3.5 6.3 1.7 1.8 0.2 0.3 0.3 0.2 0.1 0.0 0.0 0.1 0.3 0.3 0.5 0.5 0.5 0.7 0.6 0.8 0.7 0.7 0.8 1.1 1.1 0.9 0.8 0.6 0.7 0.6
0.0 1.1 5.6 1.1 0.0 0.0 0.0 0.2 0.5 7.4 2.6 1.6 2.2 4.6 0.2 0.2 0.0 0.1 0.2 0.3 0.3 0.2 0.2 0.1 0.0 0.0 0.0 0.2 0.5 0.7 0.7 0.8 0.9 1.4 1.2 1.5 1.5 1.0 1.2 1.8 1.8 1.6 1.4 1.1
0.3 4.5 8.2 5.6 0.0 0.0 2.3 1.9 2.5 2.8 5.3 9.5 9.2 2.2 0.8 0.4 0.3 0.3 0.4 0.3 0.5 0.7 0.5 0.5 1.0 1.0 1.4 1.4 1.6 1.5 2.0 2.1 1.8 1.6 2.5 2.4 2.4 2.4 2.6 2.7 1.7 2.1 2.2 2.1
0.0 2.6 6.8 9.7 6.1 3.9 5.7 3.0 3.3 8.6 25.9 7.0 5.3 5.0 2.7 2.4 1.9 1.3 1.4 2.4 3.8 3.9 3.4 2.9 3.9 4.5 5.3 5.8 5.9 5.6 5.8 4.9 3.9 3.4 3.6 3.8 3.9 4.6 4.6 4.2 3.8 4.6 4.4 4.2
0.0 12.3 5.4 3.3 1.1 4.7 5.5 4.0 2.4 8.8 10.9 20.2 9.1 7.1 8.7 8.0 7.3 6.7 5.8 5.2 5.1 5.9 6.1 6.3 6.6 7.1 7.5 7.8 8.1 9.0 9.3 9.2 8.7 8.2 8.7 9.2 9.1 8.7 8.3 8.0 7.8 7.4 7.0 7.0
0.0 11.4 5.1 4.5 0.3 1.0 4.0 4.2 2.4 2.4 4.6 7.6 9.0 10.7 10.7 7.7 4.8 5.8 5.8 5.7 6.2 6.6 6.8 6.2 6.6 7.1 6.6 7.1 7.0 6.8 7.2 6.8 7.1 7.7 9.1 8.8 8.4 8.3 8.3 8.0 7.6 7.4 7.6 7.4
0.5 5.7 10.8 10.3 0.8 0.1 4.6 3.6 1.4 1.8 2.0 2.7 5.7 5.9 4.1 3.5 4.8 6.0 6.2 6.7 7.2 6.9 8.4 8.5 8.0 7.2 6.8 6.2 6.1 6.4 5.7 5.2 5.5 5.9 5.8 5.9 5.4 5.2 5.0 4.7 4.4 4.7 4.7 4.7
0.2 2.7 10.6 16.9 4.3 19.4 5.1 3.1 3.2 3.8 4.8 5.0 5.7 6.4 7.1 7.4 8.2 7.5 8.0 8.9 10.3 9.9 9.6 8.1 7.3 7.7 7.8 7.2 6.7 5.8 5.6 5.3 5.1 4.7 5.3 4.7 4.1 3.7 3.3 2.8 2.9 2.8 2.7 2.8
0.2 2.3 14.3 24.0 16.0 7.1 7.5 6.6 6.8 8.1 6.8 8.0 8.6 8.2 8.4 9.4 10.6 11.6 10.9 10.1 9.9 9.7 9.2 8.9 7.8 7.7 7.2 6.8 6.7 6.4 5.8 5.4 5.1 4.7 3.9 2.9 3.0 2.7 2.7 2.9 4.0 6.1 4.0 2.3
0.0 0.4 7.5 14.0 26.8 15.5 9.7 5.3 6.6 9.3 9.6 6.5 7.3 9.3 10.0 9.5 12.4 11.8 9.5 7.6 7.4 6.7 6.5 6.0 5.0 4.7 5.2 5.4 5.1 4.0 3.4 3.6 3.5 2.7 2.0 1.2 1.0 1.0 1.1 1.4 1.8 4.0 2.8 4.7
0.7 2.7 11.2 9.5 27.4 19.6 10.5 7.2 7.8 18.1 13.0 6.1 5.7 9.1 8.1 8.1 8.9 7.3 5.6 4.6 4.7 4.2 3.7 3.1 3.1 3.3 3.2 2.4 1.8 1.5 1.0 1.1 0.7 0.3 0.1 0.3 0.3 0.6 0.5 2.1 1.8 2.7 2.7 3.0
4.3 10.0 8.3 11.6 22.1 19.1 8.2 6.8 9.4 18.3 13.0 13.2 10.6 7.8 6.6 6.0 6.1 5.4 4.9 4.4 3.9 3.1 2.6 2.3 1.8 1.4 1.2 0.9 0.7 0.7 1.7 1.8 1.6 1.2 1.2 0.9 0.8 0.4 0.8 0.7 0.7 0.4 0.5 0.7
5.7 8.8 11.8 15.0 16.9 14.5 11.9 12.4 15.9 16.9 14.3 11.4 8.9 6.9 6.4 5.6 4.9 4.0 3.4 3.0 2.2 1.8 1.6 1.3 1.0 0.8 0.4 0.5 0.2 0.0 0.2 0.0 0.2 0.2 0.7 0.3 0.0 0.0 0.0 0.0 0.3 0.5 0.7 1.2
5.6 6.5 12.8 12.0 12.6 10.9 12.7 15.5 14.4 12.3 12.0 10.0 7.9 6.1 4.8 4.4 3.9 2.4 2.3 1.9 1.6 1.3 1.1 0.9 0.7 0.4 0.0 0.0 0.0 0.0 0.0 0.0 0.0 0.0 0.1 0.0 0.1 0.0 0.0 0.6 0.8 1.1 0.8 1.6
11.9 4.3 9.3 12.8 11.2 13.9 14.6 11.2 13.0 10.7 9.6 7.8 6.2 4.6 3.5 2.6 2.5 2.2 2.0 1.6 1.4 1.2 0.9 0.5 0.3 0.0 0.0 0.0 0.0 0.0 0.0 0.0 0.3 0.3 0.3 1.2 0.8 0.7 0.4 1.5 1.8 2.0 1.6 1.9
11.9 12.8 17.3 18.4 17.1 17.5 13.5 10.8 9.1 7.6 6.9 4.6 2.4 2.1 2.3 1.6 1.8 1.5 1.5 1.3 1.0 0.7 0.1 0.0 0.0 0.0 0.0 0.0 0.0 0.0 0.0 0.2 0.6 0.8 0.5 1.8 1.9 2.2 2.6 3.6 4.9 2.1 1.9 2.0